Content
SEND FEEDBACK

Daily
Averages
Monthly
Summary
France

BIARRITZ, FRANCE


Home > Europe > France
Elevation: 246 feet     Latitude: 43 28N     Longitude: 001 31W

WEATHER
 
SELECT A DAY
Number of Records: 191,602;   Date Range: 7/1/96 - 8/10/14
 
SHARE

PRINT THIS DATA

[ ← Previous Day ]
WEATHER ALMANAC - JANUARY 3, 2013
[ Next Day → ]
[ °C ]   °F
Weather ElementAverageHighLow
Temperature45.1 °F53.6 °F (3:30 pm)39.2 °F (8:30 am)
Dewpoint37.9 °F41 °F (1:00 pm)35.6 °F (8:30 am)
Humidity77 %93 % (6:30 am)51 % (3:30 pm)
Barometer30.67 in30.71 in (7:00 pm)30.57 in (12:30 am)
Wind Speed5.1 mph9.2 mph (1:00 pm)
Weather ElementAverage
Visibility6.2 mi
Wind DirectionE (94.7 °)

Weather ElementTotal
Precipitation---
Heating Degree Days18.6 (Base 65)
Averaged from 47 records on January 3, 2013
WEATHER CONDITIONS BREAKOUT
WIND DIRECTION BREAKOUT
WEATHER BY HOUR - JANUARY 3, 2013
[ °C ]   °F
Local TimeTemperatureDewpointHumidityBarometerVisibilityWind DirectionWind SpeedGust SpeedPrecipitationEventsConditions
12:30 AM42.8 °F37.4 °F81 %30.57 in6.2 miCalm
1:00 AM42.8 °F37.4 °F81 %30.60 in6.2 miEast (80°)2.3 mph
1:30 AM42.8 °F37.4 °F81 %30.60 in6.2 miCalm
2:00 AM42.8 °F37.4 °F81 %30.60 in6.2 miVariable1.2 mph
2:30 AM42.8 °F39.2 °F87 %30.60 in6.2 miSSE (160°)3.5 mphOvercast
3:00 AM42.8 °F39.2 °F87 %30.60 in6.2 miSouth (170°)2.3 mphOvercast
3:30 AM42.8 °F37.4 °F81 %30.63 in6.2 miCalmOvercast
4:00 AM42.8 °F39.2 °F87 %30.63 in6.2 miSouth (190°)2.3 mphOvercast
4:30 AM42.8 °F39.2 °F87 %30.63 in6.2 miSSW (210°)1.2 mph
5:00 AM42.8 °F39.2 °F87 %30.63 in6.2 miWSW (250°)1.2 mph
5:30 AM42.8 °F39.2 °F87 %30.63 in6.2 miSSW (200°)2.3 mph
6:00 AM42.8 °F39.2 °F87 %30.63 in6.2 miSSE (160°)3.5 mphMostly Cloudy
6:30 AM41.0 °F39.2 °F93 %30.63 in6.2 miSSE (160°)3.5 mphMostly Cloudy
7:00 AM41.0 °F39.2 °F93 %30.66 in6.2 miSSE (150°)4.6 mphMostly Cloudy
7:30 AM41.0 °F39.2 °F93 %30.66 in6.2 miSSE (150°)3.5 mphMostly Cloudy
8:00 AM41.0 °F37.4 °F87 %30.66 in6.2 miSSE (150°)4.6 mphMostly Cloudy
8:30 AM39.2 °F35.6 °F87 %30.69 in6.2 miESE (120°)4.6 mphScattered Clouds
9:00 AM39.2 °F37.4 °F93 %30.69 in6.2 miEast (80°)2.3 mphPartly Cloudy
9:30 AM39.2 °F37.4 °F93 %30.69 in6.2 miENE (70°)3.5 mphPartly Cloudy
10:00 AM41.0 °F39.2 °F93 %30.69 in6.2 miEast (80°)4.6 mphPartly Cloudy
10:30 AM42.8 °F39.2 °F87 %30.69 in6.2 miEast (100°)4.6 mphPartly Cloudy
11:00 AM44.6 °F39.2 °F81 %30.69 in6.2 miEast (80°)3.5 mphPartly Cloudy
11:30 AM46.4 °F39.2 °F76 %30.69 in6.2 miENE (70°)4.6 mphPartly Cloudy
12:00 PM48.2 °F39.2 °F71 %30.69 in6.2 miENE (60°)4.6 mphPartly Cloudy
12:30 PM50.0 °F39.2 °F66 %30.69 in6.2 miENE (60°)6.9 mphPartly Cloudy
1:00 PM50.0 °F41.0 °F71 %30.69 inEast (80°)9.2 mphClear
1:30 PM51.8 °F39.2 °F62 %30.69 inEast (80°)6.9 mphClear
2:00 PM51.8 °F37.4 °F58 %30.69 inEast (90°)9.2 mphClear
2:30 PM51.8 °F37.4 °F58 %30.66 inEast (90°)9.2 mphClear
3:00 PM51.8 °F37.4 °F58 %30.66 inEast (80°)9.2 mphClear
3:30 PM53.6 °F35.6 °F51 %30.66 inENE (70°)9.2 mphClear
4:00 PM51.8 °F35.6 °F54 %30.66 inENE (70°)9.2 mphClear
4:30 PM51.8 °F35.6 °F54 %30.69 inENE (60°)9.2 mphClear
5:00 PM51.8 °F35.6 °F54 %30.69 inENE (70°)9.2 mphClear
5:30 PM50.0 °F37.4 °F62 %30.69 inENE (60°)9.2 mphClear
6:00 PM50.0 °F37.4 °F62 %30.69 inNE (40°)8.1 mphClear
6:30 PM48.2 °F37.4 °F66 %30.69 inENE (60°)6.9 mphClear
7:00 PM46.4 °F37.4 °F71 %30.71 inEast (80°)8.1 mphClear
7:30 PM44.6 °F37.4 °F76 %30.71 inEast (90°)6.9 mphClear
8:00 PM44.6 °F37.4 °F76 %30.71 inSE (130°)3.5 mphClear
8:30 PM42.8 °F35.6 °F76 %30.71 in6.2 miEast (100°)3.5 mph
9:00 PM42.8 °F35.6 °F76 %30.71 in6.2 miEast (80°)5.8 mph
9:30 PM42.8 °F35.6 °F76 %30.71 in6.2 miENE (70°)5.8 mph
10:00 PM42.8 °F37.4 °F81 %30.71 in6.2 miENE (70°)6.9 mph
10:30 PM42.8 °F37.4 °F81 %30.71 in6.2 miEast (80°)5.8 mph
11:00 PM42.8 °F37.4 °F81 %30.71 in6.2 miEast (80°)5.8 mph
11:30 PM42.8 °F39.2 °F87 %30.71 in6.2 miENE (70°)6.9 mph
Hourly data recorded from LFBZ, located miles away from Biarritz, France







STORIES FROM OUR PARTNERS